Location: Balls_Creek
(35.6670°N, 81.1170°W)
Time: 11:13:09
(UTC-04:00)

Daily predictions for brighter satellites

Satellite Brightness Start Highest point End
(mag) Time Altitude Azimuth Time Altitude Azimuth Time Altitude Azimuth
CZ-4B DEB 3.7 20:17:26 10° SE 20:20:20 30° ENE 20:23:15 10° N
Helios 1B rocket 2.6 20:16:46 10° N 20:20:54 82° WNW 20:25:00 10° SSW
Lacrosse 5 rocket 2.8 20:19:50 10° N 20:22:37 20° NE 20:25:20 10° E
Cosmos 1315 Rocket 3.9 20:18:49 10° SSW 20:22:43 51° W 20:26:41 10° N
USA 186 3.5 20:21:51 10° ESE 20:23:50 16° ENE 20:25:44 10° NNE
Cosmos 1570 Rocket 4.0 20:19:12 10° S 20:24:29 75° ESE 20:29:46 10° NNE
Okean 2 3.7 20:22:41 10° N 20:26:44 47° E 20:30:43 10° SSE
Meteor 2-16 Rocket 4.5 20:21:29 10° S 20:27:27 62° E 20:33:27 10° NNE
Meteor 1-23 Rocket 4.2 20:21:52 10° N 20:27:32 74° E 20:33:14 10° SSE
SJ-6B 4.3 20:27:08 10° SSW 20:30:37 37° W 20:34:07 10° NNW
OTV 4 0.5 20:28:13 10° WNW 20:31:11 73° NNE 20:34:01 11° E
FENGYUN 3A 3.9 20:30:22 10° SE 20:35:28 47° ENE 20:40:35 10° N
CZ-2D R/B 3.9 20:32:48 10° SE 20:36:22 37° ENE 20:39:58 10° N
Cosmos 1656 4.1 20:32:51 10° S 20:38:02 39° ESE 20:43:11 10° NE
FengYun 1-2 T 4.3 20:32:45 10° SSE 20:38:22 77° ENE 20:43:59 10° N
Hubble Space Telescope 2.7 20:38:03 10° WSW 20:41:01 19° SSW 20:43:59 10° SSE
Cosmos 1821 Rocket 4.1 20:36:21 10° S 20:42:28 79° W 20:48:35 10° N
Helios 1A 3.6 20:38:42 10° S 20:42:47 59° W 20:46:56 10° NNW
Tiangong 1 3.2 20:41:47 10° NW 20:44:15 21° N 20:46:41 10° NE
Cosmos 2227 Rocket 2.4 20:39:09 10° NNW 20:44:43 55° ENE 20:50:14 10° SE
Cosmos 1605 Rocket 4.0 20:39:19 10° S 20:45:34 62° E 20:51:45 10° NNE
Cosmos 1500 4.3 20:46:05 10° SE 20:49:01 23° E 20:52:01 10° NE
ERS-1 Rocket 4.2 20:48:08 14° ESE 20:51:10 24° ENE 20:55:07 10° NNE
Lacrosse 5 3.6 20:49:56 10° NNW 20:53:39 20° NE 20:56:52 12° ENE
Cosmos 1461 2.7 20:52:58 10° NNW 20:57:00 71° ENE 20:59:59 17° SE
DELTA 2 R/B (1) 3.8 20:51:46 10° WNW 20:57:20 66° NNE 21:01:40 17° E
Cosmos 1346 Rocket 2.8 20:54:34 10° N 20:58:33 83° W 21:02:32 10° S
Cosmos 2082 3.7 20:54:11 10° NNW 20:59:48 69° ENE 21:04:59 12° SSE
Cosmos 2297 Rocket 2.4 20:54:28 10° NNW 21:00:00 52° ENE 21:04:20 16° SE
H-2A R/B 3.9 21:03:38 13° ENE 21:03:55 13° ENE 21:05:55 10° NE
Cosmos 1898 Rocket 4.3 21:00:27 10° N 21:05:14 33° ENE 21:07:48 22° ESE
Cosmos 1626 Rocket 3.5 21:05:25 10° N 21:09:46 60° E 21:13:07 16° SSE
Cosmos 1455 Rocket 4.2 21:06:58 10° SSW 21:11:07 46° W 21:15:20 10° N
Cosmos 1515 4.0 21:11:35 10° N 21:15:18 46° E 21:16:39 31° SE
Cosmos 468 Rocket 3.9 21:12:43 10° S 21:17:45 63° ESE 21:22:49 10° NNE
Cosmos 2123 Rocket 4.3 21:12:22 10° NNW 21:18:31 70° W 21:24:38 10° S
Cosmos 1602 Rocket 3.5 21:14:38 10° N 21:19:06 78° E 21:22:29 17° SSE
RESURS DK-1 3.7 21:16:43 10° N 21:20:03 23° ENE 21:20:28 23° ENE
Cosmos 2084 4.0 21:19:01 10° NNW 21:22:53 39° NE 21:23:55 33° E
CZ-4 DEB 3.0 21:22:56 45° ENE 21:22:59 45° ENE 21:26:01 10° N
SJ-11-01 4.4 21:20:46 28° SE 21:23:01 52° ENE 21:27:34 10° N
Cosmos 841 Rocket 4.4 21:24:57 28° E 21:24:57 28° E 21:29:02 10° NE
Cosmos 1743 3.4 21:26:38 36° E 21:26:38 36° E 21:29:56 10° NNE
Cosmos 1459 Rocket 4.1 21:20:59 11° SSE 21:26:28 50° E 21:32:19 10° NNE
Cosmos 1814 Rocket 3.9 21:22:54 10° S 21:28:11 66° ESE 21:33:28 10° NNE
Cosmos 220 Rocket 3.8 21:25:49 10° NNW 21:30:03 89° W 21:31:56 32° SSE
Cosmos 1697 Rocket 2.6 21:27:45 10° SSW 21:33:25 90° ESE 21:39:05 10° NNE
Cosmos 1066 Rocket 4.2 21:29:39 10° N 21:35:20 66° E 21:38:16 30° SSE
Chunghua 1 4.5 21:31:59 10° W 21:35:51 80° S 21:36:25 62° ESE
OAO 2 Rocket 3.2 21:31:36 10° W 21:36:38 84° S 21:38:28 41° E
ALOS 4.2 21:42:58 10° SSW 21:46:57 28° W 21:50:58 10° NW
Cosmos 858 Rocket 4.4 21:43:09 10° NNW 21:48:27 77° ENE 21:49:56 48° SSE
Cosmos 1606 Rocket 3.9 21:50:20 48° ENE 21:50:20 48° ENE 21:53:58 10° NNE
ARGOS 4.4 21:53:32 24° ENE 21:53:32 24° ENE 21:57:19 10° NNE
ASTEX 1 3.9 21:48:40 10° NNE 21:52:41 41° ENE 21:52:41 41° ENE
USA 186 4.5 21:52:39 10° SW 21:54:48 17° W 21:56:51 10° NW
Cosmos 1980 Rocket 2.1 21:50:48 10° SSW 21:56:27 84° ESE 22:02:10 10° NNE
Cosmos 1802 Rocket 3.9 21:55:57 21° S 22:00:27 84° E 22:06:54 10° N
Envisat 2.9 22:00:26 56° SSE 22:01:32 90° WSW 22:06:38 10° NNW
SL-08 R/B 4.5 22:00:46 51° SE 22:01:51 58° E 22:07:54 10° NNE
Lacrosse 5 rocket 2.3 21:58:34 10° WNW 22:01:42 34° WSW 22:01:42 34° WSW
Cosmos 2298 Rocket 4.3 21:57:02 10° NNW 22:02:17 63° WSW 22:04:08 39° SSW
OTV 4 3.3 22:04:48 10° W 22:05:33 15° WSW 22:05:33 15° WSW
MetOp-B 4.3 22:07:39 55° ENE 22:07:39 55° ENE 22:12:46 10° N
Cosmos 1937 Rocket 3.4 22:03:19 10° NNW 22:08:38 87° WSW 22:09:16 70° S
Cosmos 1726 Rocket 4.3 22:14:23 46° N 22:14:23 46° N 22:17:31 10° N
Cosmos 2016 Rocket 3.8 22:11:09 42° S 22:13:23 88° E 22:19:36 10° N
H-2A R/B 4.0 22:17:51 16° NE 22:17:51 16° NE 22:19:22 10° NNE
Cosmos 990 Rocket 3.9 22:15:51 10° NNW 22:20:53 82° N 22:20:53 82° N
Tiangong 1 4.0 22:18:22 10° NW 22:19:22 17° NW 22:19:22 17° NW
Cosmos 1939 Rocket 4.2 22:25:53 35° W 22:25:53 35° W 22:29:44 10° NNW
Cosmos 2263 Rocket 4.0 22:22:50 10° NNE 22:25:29 17° NE 22:25:29 17° NE
Cosmos 2322 Rocket 3.7 22:32:37 23° NE 22:32:37 23° NE 22:34:45 10° NNE
ERS-1 Rocket 4.3 22:28:09 28° SW 22:29:43 34° W 22:34:17 10° NNW
Cosmos 1825 Rocket 4.5 22:25:56 10° NNW 22:29:39 46° WNW 22:29:39 46° WNW
Cosmos 2098 Rocket 4.0 22:29:39 60° S 22:31:04 89° W 22:37:09 10° N
SPOT 1/Viking Rocket 4.2 22:36:07 48° NNE 22:36:07 48° NNE 22:39:57 10° N
Meteor 1-21 4.4 22:29:47 10° NNW 22:35:31 66° W 22:35:57 64° WSW
Lacrosse 5 2.4 22:32:02 10° NW 22:36:04 55° WNW 22:36:04 55° WNW
SPOT 5 3.5 22:39:47 56° WNW 22:39:47 56° WNW 22:43:58 10° NNW
H-2A R/B 3.6 22:40:47 32° WNW 22:40:47 32° WNW 22:43:27 10° NNW
Meteor 2-9 Rocket 4.4 22:41:32 63° NNW 22:41:32 63° NNW 22:46:10 10° N
USA 245 4.4 22:41:37 79° N 22:41:37 79° N 22:47:37 10° N
Cosmos 1864 Rocket 4.4 22:41:44 81° NNW 22:41:44 81° NNW 22:47:37 10° N
Cosmos 967 Rocket 4.4 22:37:07 10° NNW 22:43:06 80° NNW 22:43:06 80° NNW
Cosmos 2297 Rocket 4.4 22:39:49 10° WNW 22:43:32 18° W 22:46:11 13° SW
DELTA 2 R/B (1) 4.4 22:38:21 10° WNW 22:42:25 44° WSW 22:42:25 44° WSW
Tsikada Rocket 4.1 22:45:31 10° N 22:51:23 75° NNW 22:51:23 75° NNW
USA 215 4.0 23:03:15 40° NE 23:03:15 40° NE 23:09:13 10° NNW
Terra 4.1 23:11:26 19° N 23:11:26 19° N 23:12:49 10° N
Milstar 3 Cent rocket 4.2 23:06:51 10° W 23:22:31 47° SSW 23:22:31 47° SSW
SL-16 R/B 3.8 23:28:06 30° N 23:28:06 30° N 23:31:11 10° N
H-2A R/B 4.5 23:58:30 17° NW 23:58:30 17° NW 23:59:43 10° NNW
